Temperature
18 17 16 16 15 15 15 14 14 13 13 13 12 12 13 13 13 13 13 13 13 13 13 13 13 13 13 13 13 13 13 14 14 12 12 12 13 13 13 13 14 14 14
17 17 16 16 15 15 15 14 14 13 13 13 12 12 12 12 12 13 13 13 13 13 13 13 13 13 13 13 13 13 13 13 14 13 12 13 13 13 13 13 13 13 13
17 16 16 16 16 15 15 14 14 13 13 12 12 12 12 12 12 12 12 12 12 12 12 12 12 12 12 12 12 12 13 12 13 13 13 13 12 12 12 13 13 12 12
16 16 16 16 15 15 15 14 13 13 13 12 12 12 12 12 12 12 12 12 12 12 12 12 12 12 12 12 12 12 12 12 13 13 13 12 12 12 12 12 12 12 12
14 15 15 15 15 15 14 14 13 13 12 12 12 12 12 12 11 11 11 11 11 11 11 11 11 12 12 12 12 12 12 13 13 13 12 12 12 12 12 12 12 11 11
12 13 14 14 15 15 14 14 13 13 12 12 12 12 12 11 11 11 11 11 11 11 11 11 11 11 12 12 12 12 12 13 13 12 12 12 11 11 11 11 11 11 11
11 12 12 12 13 14 14 13 13 12 12 12 12 12 11 11 11 11 11 11 11 10 11 11 11 11 12 12 12 12 12 12 12 12 12 11 11 11 11 11 11 10 10
10 11 11 11 11 12 13 13 12 12 12 12 12 11 11 11 11 11 11 11 11 11 11 11 11 11 11 11 11 11 11 11 11 11 11 11 11 10 10 10 10 10 10
10 10 10 10 11 11 11 12 12 11 11 12 12 11 11 11 11 11 11 11 11 11 11 11 11 11 11 11 11 11 11 11 11 11 11 10 10 10 10 10 10 10 9
9 9 9 9 10 10 10 10 11 11 11 11 11 11 11 11 11 11 11 11 11 11 11 11 11 11 11 11 11 11 11 11 11 10 10 10 10 10 9 9 9 9 9
9 9 9 9 9 9 9 9 10 10 10 10 11 11 11 11 11 11 11 11 11 11 11 11 10 10 10 10 11 11 11 10 10 10 10 9 9 9 8 8 8 8 8
9 8 9 9 8 8 9 9 9 9 9 10 10 11 11 11 11 11 11 11 11 11 11 11 10 10 10 10 10 10 10 9 9 9 9 8 8 8 8 8 8 8 8
8 8 8 8 8 8 8 8 8 8 8 9 10 10 11 11 11 11 11 11 11 11 11 10 10 9 9 9 9 9 9 8 8 8 8 8 8 7 7 7 7 7 7
8 8 8 8 8 8 8 7 7 7 8 8 10 10 10 11 11 11 11 10 10 10 10 10 9 9 9 9 8 8 8 8 8 8 7 7 7 7 7 7 7 7 7
7 7 8 8 8 7 7 7 7 7 7 8 9 10 10 11 11 11 11 11 10 10 10 10 9 9 9 8 8 8 7 7 7 7 7 7 7 7 7 7 6 6 6
6 6 7 8 8 7 7 7 7 6 7 7 8 10 11 11 11 11 11 11 11 10 10 10 9 9 9 8 8 8 7 7 7 7 7 7 7 6 6 6 6 6 6
5 6 6 7 7 7 7 6 6 6 6 7 8 9 10 11 11 11 11 11 11 10 10 10 9 9 9 9 8 8 8 7 7 7 7 7 6 6 6 6 6 6 6
4 5 6 6 7 7 7 6 6 6 6 7 8 9 9 10 11 11 11 11 10 10 10 10 9 9 9 9 9 8 8 8 7 7 7 7 7 7 6 6 6 6 6
4 4 5 6 6 6 6 6 6 5 6 7 8 9 9 10 10 10 11 11 11 10 10 10 9 9 9 9 9 9 8 8 8 8 7 7 7 7 7 6 6 6 6
3 4 4 5 6 6 6 6 6 6 6 7 8 9 9 9 9 10 10 10 11 10 10 10 9 9 9 9 9 9 9 8 8 8 8 7 7 7 7 7 6 6 6
3 4 4 5 6 6 6 6 6 6 7 7 8 9 10 10 10 10 10 10 10 10 10 10 10 9 9 9 9 9 9 9 8 8 8 8 8 7 7 7 7 6 6
3 4 4 5 5 6 6 6 6 6 7 8 8 9 10 10 10 10 10 11 11 11 10 10 10 9 9 9 10 9 9 9 9 9 8 8 8 8 8 7 7 7 6
3 4 5 5 5 6 6 6 6 7 7 8 9 9 9 10 10 11 11 11 11 11 10 10 10 9 9 9 10 10 9 9 9 9 9 9 8 8 8 8 8 7 7
4 4 5 5 5 6 6 6 7 7 8 9 9 10 10 10 10 11 11 11 11 11 11 10 10 10 9 10 10 10 10 10 9 9 9 9 9 9 9 8 8 8 7
5 5 5 5 6 6 6 7 7 8 8 9 10 10 11 11 11 11 11 11 11 11 11 10 10 10 10 10 10 10 10 10 9 9 9 9 9 9 9 9 9 8 8
5 5 6 6 6 6 7 7 8 8 9 10 11 11 11 11 11 11 11 11 11 11 10 10 10 10 10 10 10 10 10 10 10 10 9 9 9 9 9 9 9 9 8
Wind_Speed
6 7 8 8 8 7 6 7 5 5 5 7 8 9 9 9 8 6 5 4 2 2 2 5 6 6 5 5 4 4 3 4 7 3 2 2 5 8 7 9 11 11 13
6 7 9 9 8 8 8 8 6 5 5 5 6 7 8 8 8 7 5 4 2 1 1 3 5 6 7 5 5 5 5 5 8 7 3 4 6 5 6 8 7 10 11
7 8 9 9 10 10 10 8 6 5 4 4 4 5 6 7 6 6 6 5 6 6 6 5 6 7 7 5 6 7 7 7 7 9 5 4 5 5 6 6 7 6 7
8 8 10 11 11 11 9 8 7 5 4 3 3 3 4 4 5 6 6 7 8 9 8 7 6 6 7 7 7 9 10 10 9 10 7 5 5 4 5 5 5 5 6
10 9 10 11 10 10 9 9 7 6 5 3 1 1 2 2 4 5 6 8 9 9 9 7 6 7 8 7 8 9 11 10 10 10 8 6 4 4 4 2 3 3 4
10 10 10 9 9 10 10 9 8 7 6 4 3 2 2 3 6 7 7 7 7 8 8 7 8 10 14 14 13 11 10 11 10 8 7 7 5 4 3 3 3 3 3
9 9 10 10 9 9 9 9 10 9 7 6 5 4 5 6 9 8 7 6 6 5 5 6 7 8 10 11 13 14 12 10 10 8 9 6 4 3 3 4 3 4 3
9 8 8 8 10 9 7 9 10 8 8 7 7 7 7 8 11 10 8 6 6 5 5 6 7 6 6 10 10 10 9 7 6 6 8 5 3 3 2 3 3 3 2
10 9 8 7 8 9 8 9 8 8 8 7 8 9 9 10 13 12 10 6 7 6 5 5 6 6 8 13 12 12 11 10 11 13 12 10 9 7 3 4 4 4 3
12 10 8 7 7 7 8 8 7 8 9 10 9 9 10 11 14 15 13 8 7 6 5 5 6 8 9 11 12 13 12 8 8 10 10 10 9 10 10 5 3 4 3
12 11 10 9 8 7 6 6 7 9 9 10 10 9 9 11 16 17 15 9 9 8 6 5 5 10 12 12 11 10 12 10 9 10 9 8 8 8 8 7 6 5 4
12 12 12 10 9 6 5 5 6 7 9 10 9 8 6 8 13 15 16 13 13 10 8 6 6 12 14 14 11 12 13 11 8 8 8 7 6 6 6 7 8 9 7
12 13 13 11 9 7 6 5 5 5 7 10 10 10 8 7 9 15 15 15 14 7 8 10 12 14 13 11 12 12 10 8 8 8 7 4 3 3 3 4 6 6 7
13 13 12 10 9 8 6 5 4 4 6 9 11 12 9 8 8 9 9 10 11 10 10 12 13 12 10 10 8 7 5 6 6 6 5 4 3 4 4 4 4 4 6
13 13 12 11 10 8 7 7 6 4 4 8 11 13 14 13 13 16 15 12 11 12 12 7 6 5 6 5 5 5 5 5 5 4 5 5 5 5 4 3 3 4 4
11 11 10 9 8 8 7 7 9 8 9 14 15 13 14 16 19 20 19 19 19 20 13 10 8 8 8 7 7 5 4 4 5 5 6 5 5 5 4 3 3 4 4
11 11 9 9 8 8 7 6 6 5 9 14 17 17 15 17 20 20 19 19 20 20 10 10 9 9 8 8 7 6 5 5 4 5 6 5 5 4 4 4 3 3 3
11 13 11 8 8 8 7 6 5 5 6 5 10 16 18 19 21 20 20 17 12 11 10 12 11 10 9 9 8 6 6 6 5 5 5 5 4 4 3 3 3 3 2
10 8 8 8 8 8 7 6 6 7 8 6 6 9 13 15 17 21 21 12 15 14 11 11 10 10 9 9 9 9 8 8 6 6 5 5 4 3 3 3 3 4 2
9 13 11 7 7 8 7 7 7 8 8 7 10 11 11 10 9 13 11 11 13 13 12 11 10 10 10 9 10 10 9 8 8 6 6 5 5 4 4 4 4 4 3
8 8 11 8 7 8 7 7 7 8 8 8 10 13 19 16 15 16 15 13 13 13 12 11 10 10 9 9 10 11 11 9 8 8 7 6 6 5 4 4 5 5 4
6 6 6 6 7 7 7 7 7 8 8 9 10 12 19 15 14 15 15 14 13 11 12 11 11 10 10 10 11 11 12 10 9 9 8 7 7 6 5 5 5 5 5
6 6 6 6 6 7 7 7 8 7 7 9 12 13 15 13 13 14 14 13 11 10 10 10 10 9 9 9 10 12 13 12 11 11 10 9 8 8 7 7 8 7 7
5 6 6 6 6 7 7 8 7 6 8 10 12 13 14 14 13 14 13 11 10 10 10 10 10 12 14 11 10 12 13 14 14 12 13 11 10 9 9 9 9 10 10
5 6 6 7 7 7 7 7 6 7 9 11 11 12 13 13 12 12 11 10 11 11 12 11 9 11 14 15 13 13 15 17 16 14 12 11 11 11 11 11 10 11 11
5 6 6 6 7 6 6 5 6 8 9 10 10 11 12 12 11 11 10 10 10 10 10 10 11 13 13 14 16 17 17 18 18 17 13 10 11 11 12 11 13 12 12
Wind_Direction
248 232 228 229 225 225 233 247 257 276 298 315 321 323 328 336 341 335 321 305 280 275 235 208 196 174 162 148 130 121 125 127 123 105 71 67 82 85 74 69 64 62 62
263 247 240 236 229 230 236 243 248 266 288 307 319 326 334 341 348 351 350 353 3 37 64 129 136 133 120 113 109 106 106 111 126 122 83 68 73 78 78 67 57 58 61
284 258 250 242 232 234 237 238 239 250 276 305 325 332 337 347 2 13 25 37 49 54 59 76 89 101 98 98 108 113 111 106 105 114 100 73 74 61 71 63 54 46 49
307 276 260 251 240 236 234 231 231 233 248 282 309 327 343 7 32 42 51 58 60 56 52 56 65 86 103 110 116 120 117 110 107 107 101 85 74 57 69 68 65 45 41
323 302 279 266 252 241 234 229 224 223 225 232 258 349 21 52 72 78 73 73 73 70 59 56 68 97 112 119 127 124 122 117 112 109 104 94 79 71 71 67 77 61 54
334 330 319 297 267 248 238 226 217 215 211 200 188 154 109 111 117 109 101 88 84 85 81 70 78 89 96 95 97 102 116 124 122 114 110 106 98 89 85 80 81 67 42
323 330 336 331 308 274 249 230 218 209 199 189 180 169 160 159 153 140 113 102 99 103 104 97 92 88 92 95 84 77 76 93 116 124 121 122 124 136 126 110 100 88 66
303 312 322 331 329 313 273 243 227 205 196 189 182 178 174 182 175 157 124 102 94 86 90 107 112 102 104 109 99 86 75 69 89 101 114 116 120 146 151 130 129 107 73
286 291 300 312 323 327 308 270 237 211 199 190 181 179 181 184 181 162 139 121 104 84 73 86 114 113 124 120 111 104 93 83 79 85 88 86 81 77 111 115 106 101 68
275 274 277 284 297 310 315 298 251 219 208 193 182 183 184 180 176 164 148 137 122 108 85 73 87 112 124 126 122 120 115 113 110 94 75 62 63 59 58 72 108 111 98
269 270 270 267 271 280 302 307 272 234 205 193 182 181 186 179 172 167 159 149 141 132 123 106 90 104 105 105 109 118 129 125 110 102 93 82 71 65 61 61 66 89 94
267 266 263 259 260 270 282 304 291 243 208 194 181 177 184 179 173 175 168 154 147 141 140 130 114 107 104 102 102 113 114 109 106 103 98 90 83 77 70 70 72 74 75
266 265 261 256 250 251 255 277 297 260 220 195 188 186 185 181 182 179 168 153 147 136 142 137 125 112 103 99 106 112 110 110 111 111 108 99 87 75 84 81 66 68 66
260 263 261 252 248 245 243 239 254 273 230 205 194 191 184 178 178 171 164 151 142 132 132 126 113 104 102 102 97 92 95 109 119 119 113 104 94 87 75 79 73 61 58
257 259 258 246 238 239 238 232 227 248 252 224 207 194 185 186 188 173 164 163 160 152 140 128 125 126 123 119 112 106 107 113 111 116 119 114 102 91 81 81 86 81 70
252 255 252 243 233 230 238 248 232 240 261 249 235 211 199 188 169 169 167 161 152 148 144 151 154 157 158 157 151 141 134 129 126 131 129 123 115 107 100 95 97 97 86
239 245 246 239 230 226 229 240 258 275 262 240 223 208 196 174 164 167 162 152 150 149 152 165 169 172 173 172 170 164 159 150 144 142 140 138 131 125 122 124 124 116 99
237 243 241 234 229 225 225 228 232 262 270 234 211 200 186 172 165 155 142 133 152 168 172 175 178 180 180 181 182 176 162 155 155 154 152 153 152 145 143 147 153 147 124
232 229 231 230 228 228 225 225 233 253 256 226 185 181 177 162 152 151 151 161 172 182 183 182 182 184 188 189 188 184 176 173 172 169 168 168 166 162 163 166 164 152 142
225 232 233 225 227 229 228 230 240 252 246 215 195 177 155 143 153 167 178 175 177 183 186 185 185 187 188 188 186 184 182 181 182 185 184 180 177 181 184 182 180 177 178
215 224 236 231 224 226 227 233 246 250 237 211 194 175 168 171 173 178 186 184 182 185 186 187 186 187 188 184 182 185 188 190 192 195 196 192 187 188 193 190 189 189 183
206 209 214 219 224 226 230 237 248 245 224 203 175 166 170 174 176 180 186 189 189 187 186 185 186 187 186 184 183 187 192 196 198 201 204 202 197 195 190 189 192 192 196
204 210 218 223 227 229 234 244 247 228 202 179 163 164 176 180 178 181 186 188 186 184 181 180 183 187 190 190 189 189 193 200 203 202 202 204 204 200 196 198 198 200 207
208 213 218 225 227 231 236 244 232 201 177 163 162 168 176 179 179 181 184 183 182 181 179 180 185 191 192 193 195 198 202 203 202 204 204 206 207 206 203 204 206 209 213
216 217 220 225 226 229 232 231 206 176 165 161 164 168 173 176 177 178 178 177 177 179 181 182 186 192 197 198 198 202 204 199 198 203 205 209 212 209 207 209 211 213 214
227 222 222 220 222 224 221 207 178 167 161 158 160 164 168 172 173 172 171 173 177 181 183 187 193 195 198 203 207 205 201 200 202 203 205 210 214 217 213 217 218 216 216
Height
1483 1481 1479 1477 1475 1473 1471 1468 1466 1463 1460 1457 1455 1451 1448 1443 1439 1436 1433 1431 1430 1428 1428 1428 1429 1431 1434 1437 1440 1443 1446 1449 1452 1456 1459 1462 1464 1465 1466 1466 1465 1464 1464
1479 1477 1475 1473 1471 1469 1467 1465 1463 1460 1458 1455 1453 1450 1447 1443 1439 1435 1432 1430 1429 1427 1426 1426 1426 1429 1431 1435 1438 1442 1445 1449 1451 1454 1459 1462 1464 1465 1466 1466 1465 1465 1464
1474 1472 1470 1468 1467 1465 1464 1462 1459 1457 1455 1453 1451 1449 1446 1443 1439 1435 1432 1430 1429 1428 1427 1426 1427 1429 1432 1435 1438 1442 1446 1449 1453 1456 1460 1462 1464 1465 1466 1467 1467 1467 1467
1468 1465 1463 1462 1461 1460 1459 1457 1456 1454 1452 1451 1449 1448 1445 1442 1439 1436 1433 1431 1430 1429 1429 1430 1430 1432 1434 1437 1440 1444 1447 1451 1455 1458 1460 1463 1464 1466 1468 1469 1470 1470 1470
1462 1459 1456 1455 1454 1453 1453 1452 1451 1450 1449 1448 1447 1446 1444 1442 1440 1437 1435 1434 1432 1432 1433 1434 1435 1436 1438 1440 1443 1447 1450 1453 1456 1458 1461 1463 1466 1468 1469 1470 1471 1472 1472
1456 1452 1449 1447 1446 1445 1445 1446 1446 1445 1444 1444 1444 1444 1443 1441 1440 1439 1437 1436 1436 1436 1437 1438 1439 1441 1443 1445 1448 1451 1453 1455 1457 1459 1462 1464 1467 1468 1470 1471 1472 1472 1472
1452 1448 1444 1441 1439 1438 1437 1438 1439 1439 1439 1440 1441 1441 1441 1441 1441 1441 1440 1440 1440 1441 1442 1443 1445 1446 1447 1449 1452 1454 1456 1458 1460 1461 1463 1465 1467 1469 1471 1471 1471 1472 1472
1448 1444 1440 1436 1434 1431 1430 1430 1431 1433 1434 1435 1436 1438 1439 1439 1440 1441 1441 1442 1443 1444 1446 1447 1448 1450 1451 1453 1454 1456 1457 1459 1461 1463 1464 1467 1468 1470 1471 1471 1472 1471 1471
1443 1440 1436 1432 1429 1427 1424 1423 1424 1425 1427 1429 1431 1433 1435 1437 1439 1440 1442 1443 1445 1446 1448 1449 1450 1451 1453 1454 1455 1456 1458 1460 1462 1464 1465 1467 1469 1470 1470 1471 1471 1471 1471
1437 1434 1431 1428 1425 1422 1419 1418 1417 1417 1419 1423 1425 1428 1431 1434 1436 1439 1441 1443 1445 1447 1448 1450 1451 1452 1453 1454 1455 1456 1458 1460 1462 1464 1466 1468 1469 1469 1470 1470 1470 1471 1471
1430 1428 1425 1423 1420 1417 1414 1412 1410 1410 1411 1415 1419 1423 1427 1430 1434 1437 1440 1442 1445 1447 1448 1450 1451 1452 1453 1454 1456 1457 1458 1460 1462 1464 1466 1468 1469 1469 1469 1469 1470 1470 1471
1422 1420 1418 1416 1414 1412 1409 1406 1405 1403 1404 1407 1412 1417 1422 1426 1430 1434 1438 1441 1444 1447 1448 1450 1451 1453 1454 1455 1457 1458 1460 1461 1463 1465 1466 1467 1468 1469 1469 1469 1470 1470 1471
1411 1410 1409 1408 1407 1405 1403 1401 1399 1397 1397 1399 1406 1411 1416 1421 1427 1432 1436 1439 1443 1446 1448 1450 1452 1454 1455 1456 1458 1459 1461 1462 1463 1465 1466 1467 1468 1469 1469 1470 1471 1471 1471
1401 1400 1400 1399 1399 1398 1397 1396 1394 1392 1392 1393 1400 1405 1411 1417 1422 1427 1432 1436 1441 1445 1447 1450 1452 1455 1456 1457 1458 1460 1461 1462 1464 1465 1466 1467 1468 1469 1470 1470 1471 1472 1472
1390 1390 1390 1390 1390 1390 1390 1389 1388 1386 1387 1389 1394 1400 1405 1411 1417 1423 1427 1433 1437 1442 1445 1448 1451 1454 1456 1458 1459 1460 1461 1462 1463 1465 1466 1467 1468 1469 1470 1471 1472 1473 1472
1379 1380 1380 1381 1381 1382 1382 1382 1381 1380 1380 1382 1388 1395 1401 1407 1413 1420 1425 1431 1435 1439 1443 1446 1450 1453 1455 1457 1459 1460 1461 1462 1463 1465 1467 1468 1469 1470 1471 1472 1472 1473 1472
1368 1369 1370 1372 1373 1374 1375 1374 1373 1373 1372 1375 1381 1388 1396 1403 1410 1416 1422 1428 1432 1436 1440 1444 1448 1451 1454 1457 1459 1460 1461 1462 1464 1465 1467 1469 1470 1471 1471 1472 1473 1473 1473
1356 1359 1361 1362 1365 1366 1368 1368 1367 1367 1366 1368 1374 1382 1391 1399 1406 1413 1418 1424 1428 1433 1437 1441 1445 1449 1452 1455 1457 1459 1461 1462 1464 1465 1467 1469 1470 1471 1472 1472 1473 1473 1473
1345 1348 1351 1354 1356 1359 1360 1361 1361 1360 1360 1362 1368 1376 1385 1394 1402 1408 1414 1418 1423 1428 1433 1438 1442 1446 1450 1453 1455 1458 1460 1462 1464 1465 1467 1469 1470 1471 1472 1472 1473 1473 1473
1334 1338 1342 1345 1348 1351 1353 1353 1354 1353 1354 1357 1362 1369 1378 1386 1394 1401 1408 1414 1419 1424 1429 1434 1438 1443 1447 1450 1453 1456 1459 1461 1463 1465 1466 1468 1469 1470 1471 1472 1472 1472 1472
1326 1330 1335 1338 1341 1344 1346 1347 1347 1347 1348 1351 1357 1364 1373 1381 1389 1396 1403 1409 1415 1420 1425 1430 1434 1439 1444 1447 1450 1453 1456 1459 1461 1463 1465 1467 1468 1469 1470 1471 1471 1472 1472
1320 1324 1328 1332 1335 1338 1339 1340 1340 1341 1343 1347 1352 1361 1370 1378 1385 1392 1398 1404 1410 1416 1421 1426 1431 1435 1439 1443 1447 1450 1453 1456 1458 1461 1463 1465 1466 1467 1468 1469 1470 1470 1470
1316 1320 1324 1327 1330 1332 1333 1334 1335 1336 1339 1344 1350 1357 1365 1373 1381 1388 1394 1400 1406 1412 1418 1423 1428 1432 1436 1440 1444 1447 1450 1452 1455 1458 1460 1462 1464 1465 1466 1467 1467 1467 1467
1315 1317 1320 1323 1325 1327 1328 1329 1331 1333 1337 1342 1348 1355 1363 1370 1377 1385 1391 1398 1403 1409 1414 1419 1424 1428 1432 1436 1440 1443 1447 1450 1452 1455 1457 1459 1461 1462 1463 1463 1464 1464 1464
1313 1315 1317 1319 1321 1323 1324 1326 1328 1332 1336 1342 1348 1355 1362 1369 1376 1382 1389 1395 1400 1406 1411 1416 1420 1424 1428 1432 1435 1439 1443 1446 1449 1451 1454 1455 1457 1458 1459 1459 1459 1460 1460
1311 1312 1314 1315 1317 1319 1321 1324 1328 1332 1337 1343 1349 1356 1362 1369 1375 1381 1386 1392 1397 1402 1407 1412 1416 1419 1423 1427 1431 1435 1438 1441 1444 1447 1449 1451 1452 1453 1453 1454 1454 1454 1454